Home   Weather   Dundalk   Past weeks
Flag for Ireland

Past Weather in Dundalk, Ireland — Yesterday and Last 2 Weeks

Now
62 °F

Mild.


Feels Like: 62 °F
Forecast: 65 / 51 °F
Wind: 10 mph from West

Location: Glenanne

Current Time: Jul 18, 2019 at 12:59:02 pm

Latest Report: Jul 18, 2019 at 12:00 pm


Visibility: 17 mi

Pressure: 29.73 "Hg

Humidity: 67%

Dew Point: 51 °F

Location of DundalkLocation

Past Weather in Dundalk — Graph

°F

Dundalk Temperature Yesterday

Maximum temperature yesterday: 62 °F (at 6:00 pm)
Minimum temperature yesterday: 52 °F (at 11:00 pm)
Average temperature yesterday: 58 °F

High & Low Weather Summary for the Past Weeks

 TemperatureHumidityPressure
High67 °F (Jul 5, 3:00 pm)99% (Jul 6, 8:00 am)30.42 "Hg (Jul 6, 8:00 am)
Low46 °F (Jul 7, 5:00 am)57% (Jul 7, 3:00 pm)29.68 "Hg (Jul 17, 6:00 pm)
Average57 °F81%30.05 "Hg
* Reported Jul 3 11:00 am — Jul 18 11:00 am, Dundalk. Weather by CustomWeather, © 2019

Note: Actual official high and low records may vary slightly from our data, if they occured in-between our weather recording intervals... More about our weather records

Advertising

Dundalk Weather History for the Previous 24 Hours

Scroll right to see more
 ConditionsComfort  
Time TempWeatherWind HumidityBarometerVisibility
11:00 am
Thu, Jul 18
61 °FCool.8 mph70%29.73 "Hg25 mi
10:00 am60 °FCool.10 mph73%29.73 "Hg25 mi
9:00 am59 °FCool.8 mph79%29.73 "Hg25 mi
8:00 am56 °FCool.8 mph88%29.73 "Hg19 mi
7:00 am55 °FCool.6 mph92%29.72 "Hg16 mi
6:00 am54 °FCool.6 mph92%29.72 "Hg19 mi
5:00 am54 °FCool.7 mph94%29.72 "Hg19 mi
4:00 am53 °FCool.7 mph96%29.73 "Hg14 mi
3:00 am53 °FCool.6 mph96%29.74 "Hg15 mi
2:00 am51 °FCool.5 mph95%29.75 "Hg19 mi
1:00 am53 °FCool.5 mph90%29.75 "Hg25 mi
12:00 am51 °FCool.5 mph91%29.75 "Hg22 mi
11:00 pm
Wed, Jul 17
52 °FCool.2 mph91%29.75 "Hg25 mi
10:00 pm54 °FCool.7 mph85%29.74 "Hg25 mi
9:00 pm58 °FCool.6 mph80%29.72 "Hg25 mi
8:00 pm58 °FCool.9 mph93%29.72 "Hg22 mi
7:00 pm60 °FRain. Cloudy.9 mph94%29.69 "Hg2 mi
6:00 pm62 °FMild.13 mph95%29.68 "Hg1 mi
5:00 pm62 °FRain. Cloudy.14 mph93%29.70 "Hg2 mi
4:00 pm61 °FCool.14 mph96%29.72 "Hg12 mi
3:00 pm60 °FLight rain. Cloudy.13 mph96%29.74 "Hg2 mi
2:00 pm59 °FRain. Cloudy.16 mph96%29.76 "Hg2 mi
1:00 pm58 °FDrizzle. Cloudy.16 mph96%29.77 "Hg2 mi
12:00 pm58 °FLight rain. Cloudy.15 mph96%29.79 "Hg2 mi
Weather by CustomWeather, © 2019

See weather overview